Location: *
(53.9450°S, 136.6720°W)
Time: 08:58:25
(UTC+00:00)

Daily predictions for brighter satellites

Satellite Brightness Start Highest point End
(mag) Time Altitude Azimuth Time Altitude Azimuth Time Altitude Azimuth
Cosmos 2237 Rocket 4.3 12:35:22 22° ESE 12:35:22 22° ESE 12:38:14 10° E
Cosmos 2219 Rocket 4.1 12:49:14 25° E 12:49:14 25° E 12:51:48 10° ENE
Cosmos 2333 Rocket 3.5 13:08:04 36° E 13:08:04 36° E 13:11:38 10° NE
COSMOS 2428 4.4 13:10:08 27° NE 13:10:08 27° NE 13:12:38 10° NE
CENTAUR R/B 3.1 13:09:09 63° ESE 13:09:09 63° ESE 13:14:48 10° SE
USA 215 3.5 13:10:22 10° E 13:16:04 63° SE 13:16:04 63° SE
CZ-4 R/B 3.7 13:28:03 10° ENE 13:31:20 22° ESE 13:31:39 22° SE
Cosmos 2100 Rocket 4.2 13:32:14 72° ESE 13:32:14 72° ESE 13:38:20 10° SSE
Cosmos 1459 Rocket 4.1 13:37:01 73° ESE 13:37:01 73° ESE 13:43:01 10° SSE
USA 238 DEB 4.3 13:38:52 46° S 13:38:52 46° S 13:45:09 10° SE
USA 238 4.3 13:38:58 46° S 13:38:58 46° S 13:45:16 10° SE
Cosmos 841 Rocket 4.3 13:43:57 47° SE 13:43:57 47° SE 13:47:48 10° SSE
ATLAS 3B R/B 3.2 13:45:17 47° SSW 13:45:17 47° SSW 13:52:03 10° SE
SL-16 R/B 4.3 13:44:29 10° S 13:46:30 20° S 13:46:30 20° S
CSL-04 Rocket 4.5 13:47:31 10° NE 13:52:47 49° ESE 13:55:44 25° S
Cosmos 839 Rocket 4.0 13:53:21 72° N 13:53:21 72° N 13:59:18 10° NNE
NOSS 3-2 (A) 4.1 13:54:27 51° SSW 13:54:29 51° SSW 14:01:16 10° SE
Cosmos 1980 3.8 14:06:33 62° S 14:07:28 75° SE 14:13:12 10° NE
Ariane Rocket 3.9 14:04:24 10° NE 14:09:18 48° ESE 14:12:28 21° S
SL-16 R/B 3.3 14:07:14 29° S 14:09:31 41° SE 14:14:54 10° ENE
Cosmos 1816 Rocket 4.4 14:07:53 23° S 14:12:00 89° E 14:18:18 10° N
YAOGAN 1 4.0 14:09:26 10° NE 14:13:29 37° ESE 14:15:49 21° SSE
FENGYUN 3A 4.4 14:08:44 10° NE 14:13:59 52° ESE 14:18:25 15° S
NOSS 0 Rocket 3.8 14:16:00 63° SW 14:17:00 79° WNW 14:23:14 10° NNE
NOSS 3-2 (C) 4.1 14:16:15 48° SW 14:17:17 51° SSW 14:24:03 10° SE
Cosmos 2173 Rocket 3.9 14:17:53 62° W 14:18:15 64° WSW 14:24:38 10° S
Cosmos 2237 Rocket 2.2 14:17:13 56° SSW 14:18:28 82° SE 14:24:09 10° NE
Tsikada Rocket 3.8 14:16:05 28° SSW 14:19:38 79° W 14:25:55 10° N
ALOS 2.8 14:19:21 10° NNE 14:23:59 58° ESE 14:26:40 25° S
Meteor 1-12 Rocket 4.2 14:26:57 62° W 14:27:15 63° W 14:32:54 10° N
Cosmos 2082 Rocket 4.0 14:29:55 17° S 14:29:55 17° S 14:32:56 10° SSE
Cosmos 2219 Rocket 2.5 14:30:59 48° NW 14:30:59 48° NW 14:35:56 10° N
Meteor 1-18 Rocket 4.1 14:29:36 33° NNW 14:32:10 68° WSW 14:37:55 10° S
SMAP 3.0 14:36:20 10° N 14:41:00 64° WNW 14:41:20 62° WSW
Cosmos 1455 Rocket 3.0 14:39:45 45° S 14:41:05 88° E 14:45:28 10° N
Cosmos 2346 Rocket 4.4 14:38:15 13° SSW 14:43:54 65° W 14:50:07 10° N
Cosmos 2016 Rocket 4.0 14:40:24 10° NNW 14:46:32 56° WSW 14:52:41 10° S
SL-08 R/B 4.5 14:40:31 10° NNW 14:46:55 65° WSW 14:53:25 10° S
Cosmos 1802 Rocket 4.1 14:45:15 27° NW 14:48:21 48° WSW 14:54:26 10° S
CSL-04 Debris 4.1 14:44:24 10° N 14:49:51 74° WNW 14:53:40 21° SSW
Cosmos 2333 Rocket 2.6 14:50:07 40° WNW 14:50:18 40° WNW 14:55:34 10° N
Cosmos 2061 Rocket 4.2 14:44:30 10° NW 14:50:43 48° WSW 14:57:03 10° S
COSMOS 2428 3.9 14:52:11 25° NW 14:52:11 25° NW 14:55:33 10° NNW
ARGOS Delta rocket 4.3 14:45:37 10° SSE 14:50:44 70° E 14:56:05 10° N
Meteor 1-19 Rocket 4.2 14:49:55 10° NNW 14:55:37 81° WSW 15:01:32 10° SSE
Cosmos 1763 Rocket 4.3 14:56:34 32° SW 14:56:34 32° SW 15:00:49 10° SSE
Meteor 1-13 Rocket 4.2 14:50:48 10° N 14:56:25 84° ENE 15:02:14 10° SSE
H-2A R/B 3.7 14:53:38 10° NE 14:57:19 46° ESE 15:00:40 13° S
COSMO-SKYMED 1 3.9 14:53:53 10° SSE 14:58:08 42° E 15:02:19 10° N
CENTAUR R/B 3.0 14:56:22 34° WSW 14:59:08 50° SSW 15:05:25 10° SE
USA 215 3.2 14:53:16 10° ENE 14:59:53 85° NNW 15:03:25 31° WSW
Resurs 01 Rocket 4.3 15:00:56 10° E 15:03:17 14° SE 15:05:39 10° SSE
STPSAT 2 (USA 217) 4.5 15:00:31 14° NW 15:04:29 79° WSW 15:09:08 10° SSE
METEOR-M 4.2 14:59:21 10° N 15:04:38 53° W 15:08:05 22° SSW
CZ-4 R/B 1.5 15:01:50 10° N 15:06:01 60° W 15:07:41 34° SW
NOAA 12 4.1 15:01:50 10° NNE 15:07:10 85° ESE 15:12:32 10° SSW
Cosmos 1975 Rocket 3.2 15:05:29 10° NNW 15:09:54 53° WSW 15:14:21 10° S
SeaSat 1 4.2 15:05:56 10° SE 15:10:30 35° ENE 15:15:02 10° N
Cosmos 1544 Rocket 3.7 15:10:22 35° SW 15:11:50 50° W 15:16:04 10° N
Envisat 4.3 15:11:36 10° NE 15:16:21 39° ESE 15:21:08 10° S
Cosmos 540 Rocket 3.8 15:14:38 25° WNW 15:17:11 43° SW 15:22:10 10° SSE
Cosmos 1725 Rocket 4.2 15:11:43 10° NW 15:17:44 46° WSW 15:23:47 10° S
Cosmos 1340 Rocket 2.8 15:13:48 10° NNW 15:17:44 56° WSW 15:21:46 10° S
Meteor 1-15 Rocket 4.3 15:12:00 10° SSW 15:18:00 77° W 15:23:59 10° N
Cosmos 1818 3.6 15:14:21 10° NW 15:19:46 80° NE 15:25:12 10° SE
Cosmos 2219 3.1 15:16:18 10° NW 15:21:58 76° SW 15:27:44 10° SSE
Cosmos 489 Rocket 4.4 15:16:57 16° SSW 15:22:09 75° WNW 15:28:24 10° NNE
Cosmos 2233 Rocket 4.0 15:18:15 10° NNW 15:24:24 60° WSW 15:30:35 10° S
IRS-1A Rocket 4.2 15:18:50 10° N 15:24:34 72° WNW 15:30:15 10° SSW
Cosmos 841 Rocket 4.3 15:24:05 27° WSW 15:24:57 29° SW 15:29:30 10° SSE
Nadezhda 4 Rocket 4.3 15:20:25 10° S 15:26:38 69° ESE 15:32:49 10° NNE
Cosmos 1607 4.5 15:23:33 19° SW 15:27:56 51° SSE 15:34:00 10° ENE
SPOT 3 Rocket 3.8 15:23:11 10° NNE 15:28:24 73° ESE 15:33:39 10° SSW
Cosmos 1943 4.4 15:24:09 12° SSW 15:29:05 37° SE 15:34:22 10° ENE
FengYun 1-2 T 4.5 15:23:43 10° NNE 15:29:23 77° ESE 15:35:08 10° SSW
Iridium 2 3.6 15:26:53 10° NNW 15:30:43 72° W 15:34:38 10° S
SL-16 R/B 4.4 15:30:10 10° SSW 15:31:35 11° SSW 15:31:35 11° SSW
CSL-04 Rocket 4.3 15:28:17 10° NNW 15:33:17 35° W 15:37:23 15° SW
Meteor 2-4 Rocket 3.7 15:31:38 10° NNW 15:37:03 56° WSW 15:42:27 10° S
ATLAS 3B R/B 3.6 15:32:32 19° SW 15:37:12 39° S 15:44:09 10° ESE
Okean 2 3.8 15:33:20 10° N 15:37:27 68° E 15:41:40 10° SSE
Cosmos 783 Rocket 4.5 15:34:29 10° NW 15:39:42 65° WSW 15:44:59 10° SSE
Cosmos 1536 Rocket 3.5 15:39:38 10° NNW 15:44:01 70° WSW 15:48:29 10° S
SKYMED 2 3.5 15:41:49 10° SSE 15:46:15 74° WSW 15:50:38 10° NNW
NOSS 3-2 (A) 4.5 15:41:51 18° WSW 15:46:49 39° S 15:52:58 10° ESE
Ariane Rocket 3.7 15:43:52 10° NNW 15:48:27 33° W 15:52:41 12° SSW
Cosmos 1092 Rocket 4.3 15:43:04 10° S 15:49:21 70° ESE 15:55:38 10° NNE
COSMOS 2455 2.8 15:43:19 10° NW 15:49:22 81° SW 15:55:28 10° SE
YAOGAN 1 3.3 15:45:38 10° NNW 15:49:37 33° W 15:52:59 14° SW
Cosmos 1538 Rocket 4.2 15:44:45 10° NNW 15:50:03 80° ENE 15:55:21 10° SSE
Cosmos 2297 Rocket 2.3 15:45:53 10° NNW 15:51:35 82° ENE 15:57:21 10° SSE
Cosmos 1515 4.0 15:48:48 10° NNW 15:52:33 44° WSW 15:56:22 10° S
Cosmos 1805 4.4 15:49:06 10° S 15:52:59 45° ESE 15:56:48 10° NNE
SL-16 R/B 2.4 15:49:08 15° SW 15:53:51 52° WNW 15:59:20 10° N
FENGYUN 3A 4.4 15:49:37 10° NNW 15:54:28 33° W 15:59:22 10° SSW
Cosmos 1766 3.7 15:51:37 10° S 15:55:35 65° ESE 15:59:31 10° NNE
YAOGAN 6 4.0 15:53:37 10° NE 15:57:09 40° ESE 16:00:45 10° S
Cosmos 2227 Rocket 2.2 15:54:00 10° NW 15:59:43 83° WSW 16:05:28 10° SSE
H-2A R/B 4.3 15:56:36 10° E 15:59:50 17° SE 16:03:02 10° SSE
ALOS 3.4 15:57:58 10° NW 16:01:47 24° W 16:05:11 12° SW
Cosmos 2237 Rocket 3.4 15:59:05 16° WSW 16:01:54 22° WNW 16:06:10 10° NNW
SJ-6B 3.2 15:59:18 10° NNE 16:03:17 68° ESE 16:07:13 10° S
Cosmos 1356 Rocket 3.4 16:00:34 10° NNW 16:04:38 61° WSW 16:08:49 10° S
MTI 4.2 16:04:34 10° SSE 16:07:52 69° ENE 16:11:06 10° N
Cosmos 1544 3.3 16:04:12 10° SSW 16:07:55 53° W 16:11:35 10° N
NOSS 3-2 (C) 4.4 16:03:42 14° WSW 16:09:40 39° S 16:15:50 10° ESE
USA 116 4.2 16:07:37 10° S 16:10:36 29° WSW 16:13:46 10° NW
Cosmos 2082 Rocket 4.2 16:12:37 10° SSW 16:15:42 15° S 16:18:46 10° SE
EO 1 Del DPAF 4.1 16:14:02 10° SSE 16:17:54 55° ENE 16:21:43 10° N
Cosmos 1606 Rocket 3.5 16:13:40 10° SSW 16:18:04 71° W 16:22:27 10° N
Resurs 1-3 4.4 16:17:36 10° NE 16:21:56 53° ESE 16:26:19 10° S
FREGAT/IRIS 3.2 16:20:35 10° NNW 16:23:24 37° W 16:26:17 10° SSW
Cosmos 1470 4.3 16:21:50 10° S 16:25:41 38° ESE 16:29:27 10° NE
Cosmos 1603 3.8 16:23:29 10° SW 16:29:14 75° WNW 16:34:53 10° NNE
Cosmos 1025 Rocket 3.2 16:25:07 10° NNW 16:29:21 51° WSW 16:33:39 10° S
H-2A R/B 4.1 16:28:49 10° NW 16:31:49 21° W 16:34:52 10° SW
Cosmos 2082 3.7 16:27:32 10° NW 16:33:10 66° SW 16:38:54 10° SSE
HJ-1C 3.9 16:30:09 10° N 16:33:26 42° W 16:36:48 10° SSW
USA 229 DEB 4.1 16:26:45 10° NW 16:34:10 79° NE 16:41:24 10° SE
COSMO-SKYMED 1 3.4 16:30:18 10° S 16:34:11 30° WSW 16:38:01 10° WNW
USA 229 4.1 16:26:52 10° NW 16:34:16 78° NE 16:41:30 10° SE
CZ-2D R/B 3.6 16:34:06 10° N 16:37:53 50° W 16:41:44 10° SSW
ERS-2 2.8 16:34:55 10° NNE 16:38:36 57° ESE 16:42:19 10° S
Resurs 01 Rocket 2.0 16:34:32 10° NNE 16:39:00 71° ESE 16:43:32 10° SSW
USA 186 1.3 16:39:39 10° N 16:42:13 68° WNW 16:45:02 10° SSW
USA 215 4.1 16:37:19 10° NNE 16:43:25 40° NW 16:49:35 10° WSW
Cosmos 2084 4.4 16:39:03 10° SW 16:43:47 49° SSE 16:48:34 10° ENE
Cosmos 1939 Rocket 2.9 16:41:58 10° N 16:45:56 75° WNW 16:50:03 10° SSW
Cosmos 2058 Rocket 3.2 16:41:38 10° SSW 16:46:07 64° W 16:50:35 10° N
